Home > Weather > Metlakatla > Past weeks

Flag for USA Past Weather in Metlakatla, Alaska, USA — Yesterday and Last 2 Weeks

Now
63 °F

Mostly cloudy.


Feels Like: 63 °F
Forecast: 60 / 66 °F
Wind: 7 mph from South

Location: Metlakatla - Metlakatla Seaplane Base

Current Time: Aug 26, 2016 at 10:44:07 AM

Latest Report: Aug 26, 2016 at 10:16 AM


Visibility: 9 mi

Pressure: 29.99 "Hg

Humidity: 77%

Dew Point: 55 °F

Location of MetlakatlaLocation

Past Weather in Metlakatla — Graph

°F

Metlakatla Temperature Yesterday

Maximum temperature yesterday: 72 °F (at 3:36 PM)
Minimum temperature yesterday: 63 °F (at 7:16 PM)
Average temperature yesterday: 66 °F

High & Low Weather Summary for the Past Weeks

 TemperatureHumidityPressure
High75 °F (Aug 18, 5:36 PM)100% (Aug 13, 4:36 AM)30.42 "Hg (Aug 13, 4:36 AM)
Low52 °F (Aug 22, 4:36 AM)47% (Aug 21, 6:36 PM)29.84 "Hg (Aug 21, 6:56 AM)
Average62 °F79%30.18 "Hg
* Reported Aug 11 9:16 AM — Aug 26 9:16 AM, Metlakatla, Weather by CustomWeather, © 2016

Note: Actual official high and low records may vary slightly from our data, if they occured in-between our weather recording intervals... More about our weather records

Advertising

Metlakatla Weather History for the Previous 24 Hours

Scroll right to see more
 ConditionsComfort  
Time TempWeatherWind HumidityBarometerVisibility
9:16 AM
Fri, Aug 26
63 °FPartly sunny.No wind77%30.02 "Hg10 mi
8:36 AM63 °FMore clouds than sun.No wind73%30.05 "Hg10 mi
8:16 AM63 °FOvercast.3 mph83%30.06 "Hg10 mi
7:56 AM61 °FOvercast.No wind83%30.07 "Hg10 mi
7:16 AM61 °FPartly sunny.6 mph77%30.08 "Hg10 mi
6:56 AM61 °FScattered clouds.No wind77%30.09 "Hg10 mi
6:36 AM59 °FPassing clouds.No wind82%30.09 "Hg10 mi
6:16 AM59 °FPassing clouds.No wind77%30.10 "Hg10 mi
5:56 AM61 °FPassing clouds.No wind77%30.11 "Hg10 mi
5:36 AM61 °FClear.No wind83%30.11 "Hg10 mi
5:16 AM61 °FClear.3 mph77%30.12 "Hg10 mi
4:56 AM61 °FClear.No wind77%30.12 "Hg10 mi
4:36 AM61 °FClear.No wind77%30.13 "Hg10 mi
4:16 AM61 °FClear.No wind77%30.14 "Hg2 mi
3:36 AM61 °FClear.7 mph77%30.15 "Hg10 mi
3:16 AM61 °FClear.No wind77%30.15 "Hg10 mi
2:36 AM61 °FClear.3 mph77%30.15 "Hg10 mi
2:16 AM63 °FClear.3 mph73%30.16 "Hg10 mi
1:56 AM63 °FClear.14 mph73%30.17 "Hg10 mi
1:36 AM63 °FClear.12 mph68%30.18 "Hg10 mi
1:16 AM63 °FClear.12 mph73%30.17 "Hg10 mi
12:36 AM63 °FClear.13 mph73%30.18 "Hg10 mi
11:56 PM
Thu, Aug 25
63 °FClear.10 mph73%30.19 "Hg10 mi
11:36 PM63 °FClear.10 mph73%30.20 "Hg10 mi
11:16 PM64 °FClear.10 mph73%30.21 "Hg10 mi
10:56 PM64 °FClear.10 mph73%30.21 "Hg10 mi
10:36 PM63 °FClear.6 mph73%30.21 "Hg10 mi
9:36 PM63 °FClear.9 mph73%30.23 "Hg10 mi
9:16 PM63 °FClear.10 mph73%30.23 "Hg10 mi
8:56 PM63 °FClear.9 mph73%30.23 "Hg10 mi
8:36 PM63 °FSunny.12 mph73%30.24 "Hg10 mi
8:16 PM63 °FSunny.12 mph73%30.24 "Hg10 mi
7:56 PM64 °FSunny.14 mph68%30.24 "Hg10 mi
7:36 PM64 °FSunny.18 mph68%30.24 "Hg10 mi
7:16 PM63 °FSunny.10 mph73%30.24 "Hg10 mi
6:36 PM66 °FSunny.16 mph64%30.24 "Hg10 mi
5:56 PM70 °FSunny.9 mph60%30.25 "Hg10 mi
5:36 PM68 °FSunny.7 mph64%30.26 "Hg10 mi
5:16 PM70 °FSunny.13 mph57%30.26 "Hg10 mi
4:56 PM70 °FSunny.14 mph60%30.27 "Hg10 mi
4:36 PM70 °FSunny.12 mph57%30.27 "Hg10 mi
4:16 PM72 °FSunny.12 mph53%30.27 "Hg10 mi
3:56 PM70 °FSunny.17 mph57%30.28 "Hg10 mi
3:36 PM72 °FSunny.16 mph57%30.28 "Hg10 mi
3:16 PM70 °FSunny.17 mph60%30.29 "Hg10 mi
2:56 PM70 °FSunny.14 mph57%30.30 "Hg10 mi
2:36 PM70 °FSunny.15 mph60%30.30 "Hg10 mi
Weather by CustomWeather, © 2016

See weather overviewHow to use our weather pages